User: anonymous   Login
Location: Unspecified
(0.0000°N, 0.0000°E)
Time: 03:49:35
(UTC+01:00)
Language:

Cosmos 2279 Rocket - Orbit

View from above orbital plane
View from above orbital plane
View from above satellite
View from above satellite

Ground track
Ground track

The orbit data is extracted from the following two-line orbital elements,

1 23093U 94024B   16036.74033691  .00000040  00000-0  25054-4 0  9999
2 23093  82.9487 124.4654 0009047 324.4920  35.5635 13.77682972562931
Epoch (UTC): 05 February 2016 17:46:05
Eccentricity: 0.0009047
inclination: 82.9487°
perigee height: 965 km
apogee height: 979 km
right ascension of ascending node: 124.4654°
argument of perigee: 324.4920°
revolutions per day: 13.77682972
mean anomaly at epoch: 35.5635°
orbit number at epoch: 56293

The dashed part of the orbit path shows where the satellite is in the earth's shadow,  

DLR